Home > Weather > Ahvaz > Past weeks

Flag for Iran Weather for the Past 2 Weeks in Ahvaz, Iran

Now
52 °F

Clear.


Feels Like: 51 °F
Forecast: 50 / 67 °F
Wind: 5 mph from Northwest

Location: Ahwaz

Current Time: Feb 9, 2016 at 3:20:54 AM

Latest Report: Feb 9, 2016 at 2:30 AM


Visibility: 10 mi

Pressure: 30.15 "Hg

Humidity: 82%

Dew point: 46 °F

Location of AhvazLocation

Historic Weather in Ahvaz — Graph

°F

Ahvaz Temperature Yesterday

Maximum temperature yesterday: 70 °F (at 2:30 PM)
Minimum temperature yesterday: 55 °F (at 6:30 AM)
Average temperature yesterday: 61 °F

High & Low Weather Summary for the Past Weeks

 TemperatureHumidityPressure
High73 °F (Feb 5, 5:00 PM)94% (Jan 25, 1:30 AM)30.36 "Hg (Jan 25, 1:30 AM)
Low36 °F (Jan 29, 7:00 AM)24% (Jan 25, 3:00 PM)29.86 "Hg (Feb 7, 2:30 PM)
Average56 °F54%30.15 "Hg
* Reported Jan 25 1:30 AM — Feb 9 1:30 AM, Ahvaz, Weather by CustomWeather, © 2016

Note: Actual official high and low records may vary slightly from our data, if they occured in-between our weather recording intervals... More about our weather records

Advertising

Ahvaz Weather History for the Previous 24 Hours

 ConditionsComfort  
Time TempWeatherWind HumidityBarometerVisibility
1:30 AM
Tue, Feb 9
55 °FClear.7 mph63%30.15 "Hg10 mi
12:30 AM55 °FClear.7 mph63%30.15 "Hg10 mi
12:00 AM57 °FClear.7 mph59%30.15 "Hg10 mi
11:30 PM
Mon, Feb 8
59 °FClear.7 mph48%30.15 "Hg10 mi
11:00 PM59 °FClear.7 mph55%30.15 "Hg10 mi
10:30 PM57 °FClear.No wind59%30.12 "Hg10 mi
10:00 PM57 °FClear.No wind63%30.12 "Hg10 mi
9:30 PM57 °FClear.2 mph63%30.12 "Hg10 mi
9:00 PM57 °FClear.2 mph59%30.12 "Hg10 mi
8:30 PM59 °FClear.No wind59%30.09 "Hg10 mi
8:00 PM61 °FClear.No wind52%30.09 "Hg10 mi
7:30 PM63 °FClear.5 mph49%30.09 "Hg10 mi
7:00 PM63 °FClear.No wind49%30.09 "Hg10 mi
6:30 PM63 °FClear.No wind52%30.09 "Hg10 mi
5:55 PM64 °FScattered clouds.No wind46%30.07 "HgN/A
5:30 PM66 °FScattered clouds.5 mph43%30.07 "HgN/A
5:00 PM66 °FScattered clouds.5 mph40%30.07 "HgN/A
4:30 PM68 °FScattered clouds.5 mph35%30.07 "HgN/A
4:00 PM68 °FScattered clouds.No wind33%30.07 "HgN/A
3:30 PM68 °FScattered clouds.5 mph33%30.07 "HgN/A
3:00 PM70 °FScattered clouds.7 mph31%30.07 "HgN/A
2:30 PM70 °FScattered clouds.12 mph31%30.07 "HgN/A
2:00 PM68 °FScattered clouds.7 mph38%30.07 "HgN/A
1:30 PM68 °FScattered clouds.7 mph35%30.07 "HgN/A
1:00 PM68 °FPassing clouds.7 mph40%30.09 "HgN/A
12:30 PM68 °FPassing clouds.7 mph46%30.09 "HgN/A
11:55 AM66 °FSunny.7 mph46%30.09 "Hg10 mi
11:30 AM66 °FPassing clouds.9 mph46%30.09 "Hg5 mi
10:55 AM63 °FPassing clouds.7 mph52%30.09 "Hg4 mi
10:30 AM63 °FPassing clouds.7 mph52%30.09 "Hg4 mi
10:00 AM61 °FScattered clouds.5 mph59%30.07 "Hg2 mi
9:30 AM57 °FScattered clouds.5 mph72%30.07 "Hg2 mi
8:55 AM55 °FScattered clouds.5 mph77%30.07 "Hg2 mi
8:30 AM55 °FPartly sunny.5 mph77%30.04 "Hg2 mi
7:55 AM55 °FFog.5 mph77%30.01 "Hg2 mi
7:30 AM55 °FFog.5 mph82%30.01 "Hg2 mi
7:00 AM55 °FPassing clouds.5 mph77%29.98 "Hg4 mi
6:30 AM55 °FPassing clouds.5 mph82%29.98 "Hg5 mi
5:30 AM57 °FPassing clouds.5 mph77%29.95 "HgN/A
4:30 AM57 °FPassing clouds.2 mph77%29.95 "HgN/A
3:30 AM57 °FPassing clouds.5 mph77%29.95 "HgN/A
Weather by CustomWeather, © 2016

See weather overviewHow to use our weather pages